Probability
0 0 0 0 0 0 0 0 0 0 0 0 0 0 0 0 0 0 0 0 0 0 0 0 0 0 0 0 0 0 0 0 0 0 0 0 0 0
0 0 0 0 0 0 0 0 0 0 0 0 0 0 0 0 0 0 0 0 0 0 0 0 0 0 0 0 0 0 0 0 0 0 0 0 0 0
0 0 0 0 0 0 0 0 0 0 0 0 0 0 0 0 0 0 0 0 0 0 0 0 0 0 0 0 0 0 0 0 0 0 0 0 0 0
0 0 0 0 0 0 0 0 0 0 0 0 0 0 0 0 0 0 0 0 0 0 0 0 0 0 0 0 0 0 0 0 0 0 0 0 0 0
0 0 0 0 0 0 0 0 0 0 0 0 0 0 0 0 0 0 0 0 0 0 0 0 0 0 0 0 0 0 0 0 0 0 0 0 0 0
0 0 0 0 0 0 0 0 0 0 0 0 0 0 0 0 0 0 0 0 0 0 0 0 0 0 0 0 0 0 0 0 0 0 0 0 0 0
0 0 0 0 0 0 0 0 0 0 0 0 0 0 0 0 0 0 0 0 0 0 0 0 0 0 0 0 0 0 0 0 0 0 0 0 0 0
0 0 0 0 0 0 0 0 0 0 0 0 0 0 0 0 0 0 0 0 0 0 0 0 0 0 0 0 0 0 0 0 0 0 0 0 0 0
0 0 0 0 0 0 0 0 0 0 0 0 0 0 0 0 0 0 0 0 0 0 0 0 0 0 0 0 0 0 0 0 0 0 0 0 0 0
0 0 0 0 0 0 0 0 0 0 0 0 0 0 0 0 0 0 0 0 0 0 0 0 0 0 0 0 0 0 0 0 0 0 0 0 0 0
0 0 0 0 0 0 0 0 0 0 0 0 0 0 0 0 0 0 0 0 0 0 0 0 0 0 0 0 0 0 0 0 0 0 0 0 0 0
0 0 0 0 0 0 0 0 0 0 0 0 0 0 0 0 0 0 0 0 0 0 0 0 0 0 0 0 0 0 0 0 0 0 0 0 0 0
0 0 0 0 0 0 0 0 0 0 0 0 0 0 0 0 0 0 0 0 0 0 0 0 0 0 0 0 0 0 0 0 0 0 0 0 0 0
0 0 0 0 0 0 0 0 0 0 0 0 0 0 0 0 0 0 0 0 0 0 0 0 0 0 0 0 0 0 0 0 0 0 0 0 0 0
0 0 0 0 0 0 0 0 0 0 0 0 0 0 0 0 0 0 0 0 0 0 0 0 0 0 0 0 0 0 0 0 0 0 0 0 0 0
0 0 0 0 0 0 0 0 0 0 0 0 0 0 0 0 0 0 0 0 0 0 0 0 0 0 0 0 0 0 0 0 0 0 0 0 0 0
0 0 0 0 0 0 0 0 0 0 0 0 0 0 0 0 0 0 0 0 0 0 0 0 0 0 0 0 0 0 0 0 0 0 0 0 0 0
0 0 0 0 0 0 0 0 0 0 0 0 0 0 0 0 0 0 0 0 0 0 0 0 0 0 0 0 0 0 0 0 0 0 0 0 0 0
0 0 0 0 0 0 0 0 0 0 0 0 0 0 0 0 0 0 0 0 0 0 0 0 0 0 0 0 0 0 0 0 0 0 0 0 0 0
0 0 0 0 0 0 0 0 0 0 0 0 0 0 0 0 0 0 0 0 0 0 0 0 0 0 0 0 0 0 0 0 0 0 0 0 0 0
0 0 0 0 0 0 0 0 0 0 0 0 0 0 0 0 0 0 0 0 0 0 0 0 0 0 0 0 0 0 0 0 0 0 0 0 0 0
0 0 0 0 0 0 0 0 0 0 0 0 0 0 0 0 0 0 0 0 0 0 0 0 0 0 0 0 0 0 0 0 0 0 0 0 0 0
0 0 0 0 0 0 0 0 0 0 0 0 0 0 0 0 0 0 0 0 0 0 0 0 0 0 0 0 0 0 0 0 0 0 0 0 0 0
Wind_Speed
4 5 5 5 5 5 4 5 6 5 5 4 3 3 3 4 7 8 7 12 12 11 11 10 10 9 8 7 6 5 5 5 5 5 4 3 2 2
2 3 4 3 4 5 5 5 5 5 4 4 3 3 4 5 7 7 6 12 12 11 10 10 10 9 8 7 6 6 6 5 5 4 3 2 1 0
1 2 3 4 4 5 5 5 5 4 4 2 2 2 3 5 5 5 5 5 5 9 9 9 9 8 7 7 6 6 6 6 5 5 4 3 3 2
1 1 1 2 4 4 4 5 5 5 4 4 3 2 3 5 6 6 5 5 4 7 9 8 8 7 7 7 7 7 7 6 5 5 5 5 5 5
1 1 1 1 2 2 3 4 4 4 4 4 4 2 2 4 5 5 5 4 4 5 7 7 8 8 8 8 8 8 8 7 7 7 7 7 7 9
2 1 1 1 1 2 2 4 4 5 4 5 4 3 3 4 5 5 5 4 5 6 8 9 12 12 10 10 10 10 10 10 10 10 10 10 12 12
2 1 1 1 2 2 2 3 4 4 4 4 5 4 4 5 5 4 7 7 6 5 7 6 7 6 7 9 11 12 12 12 12 12 12 12 12 13
1 1 1 2 3 3 4 5 5 5 5 4 3 5 5 5 5 8 9 7 5 4 5 5 5 6 5 5 9 13 13 13 13 13 13 12 12 13
2 1 1 3 4 3 4 5 3 4 5 5 5 5 6 7 9 9 8 6 5 6 6 5 4 6 5 6 12 12 13 13 13 12 13 12 12 11
3 2 2 2 3 3 4 4 3 2 2 3 4 5 5 7 8 8 9 9 8 5 4 5 3 4 5 5 10 11 10 11 11 11 11 10 9 9
4 4 3 2 3 5 4 4 4 3 4 5 5 6 9 12 12 10 10 11 7 3 2 4 4 3 3 3 5 8 8 8 8 8 9 8 8 7
4 4 5 4 4 5 4 4 4 3 3 4 5 6 7 11 14 11 10 10 7 4 3 4 5 4 4 1 2 2 3 5 5 5 5 6 7 4
3 3 3 5 6 6 5 3 4 4 4 5 5 5 5 6 6 5 6 8 7 4 6 6 4 3 4 4 1 1 1 1 2 3 4 5 7 6
2 2 2 4 5 6 4 6 8 7 4 5 5 5 5 5 6 6 7 5 4 5 9 6 5 5 5 4 3 2 1 1 2 2 2 5 6 7
1 2 4 5 5 5 6 8 6 5 5 5 5 4 4 5 6 6 7 8 8 7 5 3 5 6 4 4 4 4 3 2 2 2 2 2 2 2
2 3 6 7 5 5 5 4 4 4 4 5 4 4 4 5 5 5 5 6 6 4 6 4 5 7 4 3 4 4 3 4 3 3 2 1 1 1
1 2 3 3 3 3 3 4 3 3 4 3 4 5 5 5 4 3 3 3 4 3 2 4 6 7 6 5 4 3 3 2 3 3 3 2 2 3
4 3 2 2 3 3 3 3 2 3 3 4 4 4 4 4 4 3 3 4 4 3 3 2 3 4 4 5 4 4 3 2 2 2 3 3 3 3
4 3 2 2 2 3 2 2 2 2 3 4 4 4 4 4 4 4 4 4 4 3 2 2 2 4 3 1 1 1 4 3 3 2 2 3 3 4
2 2 2 2 2 2 2 2 3 3 3 3 4 4 4 4 4 4 4 4 4 3 2 1 2 3 4 5 3 1 1 4 4 3 2 2 2 2
1 1 1 1 2 2 2 3 3 3 3 3 3 4 4 4 4 4 4 5 4 3 3 3 2 3 3 4 3 1 2 2 4 4 4 2 1 1
2 2 1 1 2 2 2 3 3 3 4 3 3 3 3 4 5 5 5 4 3 3 4 2 2 3 2 3 3 3 2 1 1 3 5 7 5 4
3 3 2 2 2 2 3 4 4 4 4 4 4 4 4 3 3 4 4 4 4 3 3 3 2 2 2 2 3 3 3 3 2 1 3 8 12 12
Wind_Direction
203 204 202 198 191 190 183 179 173 185 208 207 193 195 185 180 177 178 182 192 189 189 185 182 181 182 182 182 179 173 166 161 162 170 183 198 215 246
186 192 205 202 200 197 195 190 187 178 194 198 194 184 173 173 168 168 178 185 187 187 187 184 180 179 178 176 170 165 162 155 152 153 150 155 156 130
108 186 205 195 201 204 197 190 188 175 181 180 167 153 152 158 152 148 152 165 174 184 183 181 175 171 171 170 161 153 147 141 137 138 138 133 119 104
60 74 152 177 197 197 192 192 189 180 170 166 161 151 152 162 151 144 147 157 152 174 176 174 166 160 158 153 145 140 135 129 124 125 125 124 116 103
40 57 43 106 170 184 184 184 184 177 165 156 157 147 130 141 134 128 122 115 126 131 139 139 135 133 135 136 132 129 124 119 114 112 110 109 104 98
32 37 46 102 159 175 176 178 171 164 157 150 142 134 126 133 134 132 121 110 107 102 94 93 98 97 104 111 114 116 115 113 110 106 102 100 97 95
27 30 39 92 138 149 156 159 157 155 154 151 146 136 141 146 147 139 131 120 100 105 104 91 89 84 84 96 107 114 113 111 109 106 101 98 97 96
27 20 26 40 65 90 131 147 151 155 162 158 156 157 159 151 139 142 140 137 125 123 107 90 86 88 78 86 107 112 112 110 107 105 103 101 100 98
35 45 50 57 52 51 80 101 119 149 163 160 163 168 162 159 149 149 148 135 121 134 113 92 77 83 78 92 103 108 111 111 109 107 107 106 103 100
31 45 68 63 58 66 75 77 68 64 134 162 166 166 159 155 151 141 132 112 104 101 95 103 85 75 68 72 96 101 104 107 110 113 114 110 105 104
26 39 68 79 80 89 85 85 75 57 68 103 120 130 143 145 139 130 133 135 130 112 82 105 117 93 64 45 69 87 99 106 113 122 128 124 111 96
24 26 42 69 81 93 93 97 88 65 77 87 90 100 120 140 145 147 148 146 136 127 134 115 137 131 109 61 39 50 71 84 96 114 142 149 132 104
37 19 13 56 81 85 85 85 96 96 88 93 95 100 104 114 122 121 134 146 142 132 151 133 141 133 124 135 153 159 119 99 67 60 90 132 147 137
44 8 11 62 83 82 82 89 89 86 83 84 89 95 105 109 112 109 102 90 87 129 150 141 137 150 132 135 159 163 168 166 129 112 84 91 103 122
25 35 55 69 76 70 82 87 80 79 84 85 86 81 78 97 103 98 88 86 81 89 114 128 133 136 130 142 151 151 161 190 177 158 158 145 147 127
28 53 65 69 69 71 74 72 67 78 91 94 91 83 79 87 96 101 105 101 90 58 32 49 130 133 126 127 137 146 156 167 170 174 162 179 221 206
68 65 63 63 68 64 70 77 76 78 84 87 96 98 97 96 90 82 96 91 96 104 61 40 63 73 80 117 121 135 140 147 158 151 146 182 249 231
92 80 78 81 91 98 100 87 83 94 97 105 106 108 111 110 100 83 87 102 109 108 107 111 108 84 65 42 62 139 144 154 154 149 146 165 242 248
89 94 99 109 116 120 122 117 115 119 114 117 119 119 117 113 114 114 110 106 107 107 108 109 103 107 114 166 320 80 158 160 148 154 178 184 217 246
84 106 111 118 125 130 134 129 125 123 117 121 125 127 127 126 128 134 138 138 134 126 122 117 142 149 164 180 189 201 159 160 161 177 196 210 243 291
121 124 134 134 133 135 138 138 139 139 138 133 134 137 137 131 137 147 151 152 140 143 163 193 202 140 116 99 103 226 255 216 182 178 175 175 224 278
193 183 178 169 154 145 144 142 137 139 142 140 145 146 146 146 152 157 160 159 165 168 175 168 135 125 124 146 176 199 216 240 267 224 211 189 177 200
200 196 189 177 167 154 151 155 153 156 158 155 153 153 150 149 154 157 163 163 158 157 149 152 152 148 160 166 177 192 200 202 210 259 268 244 234 239